owner,sensor,date,latitude,longitude,air_pressure(mBar),qcFlag 
COMPS,ioos:station:USF.COMPS:C10:1,2015-05-01T00:05:00Z,27.1690,-82.9260,1009.36,1111122 
COMPS,ioos:station:USF.COMPS:C10:1,2015-05-01T00:35:00Z,27.1690,-82.9260,1009.85,1111122 
COMPS,ioos:station:USF.COMPS:C10:1,2015-05-01T01:05:00Z,27.1690,-82.9260,1010.52,1111122 
COMPS,ioos:station:USF.COMPS:C10:1,2015-05-01T01:35:00Z,27.1690,-82.9260,1011.05,1111122 
COMPS,ioos:station:USF.COMPS:C10:1,2015-05-01T04:05:00Z,27.1690,-82.9260,1011.76,1111122 
COMPS,ioos:station:USF.COMPS:C10:1,2015-05-01T04:35:00Z,27.1690,-82.9260,1011.64,1111122 
COMPS,ioos:station:USF.COMPS:C10:1,2015-05-01T05:05:00Z,27.1690,-82.9260,1011.48,1111122 
COMPS,ioos:station:USF.COMPS:C10:1,2015-05-01T05:35:00Z,27.1690,-82.9260,1011.14,1111122 
COMPS,ioos:station:USF.COMPS:C10:1,2015-05-01T08:05:00Z,27.1690,-82.9260,1010.5,1111122 
COMPS,ioos:station:USF.COMPS:C10:1,2015-05-01T08:35:00Z,27.1690,-82.9260,1010.4,1111122 
COMPS,ioos:station:USF.COMPS:C10:1,2015-05-01T09:05:00Z,27.1690,-82.9260,1010.51,1111122 
COMPS,ioos:station:USF.COMPS:C10:1,2015-05-01T09:35:00Z,27.1690,-82.9260,1010.62,1111122 
COMPS,ioos:station:USF.COMPS:C10:1,2015-05-01T10:05:00Z,27.1690,-82.9260,1010.86,1111122 
COMPS,ioos:station:USF.COMPS:C10:1,2015-05-01T10:35:00Z,27.1690,-82.9260,1011.0,1111122 
COMPS,ioos:station:USF.COMPS:C10:1,2015-05-01T11:05:00Z,27.1690,-82.9260,1011.11,1111122 
COMPS,ioos:station:USF.COMPS:C10:1,2015-05-01T11:35:00Z,27.1690,-82.9260,1011.42,1111122 
COMPS,ioos:station:USF.COMPS:C10:1,2015-05-01T12:05:00Z,27.1690,-82.9260,1011.53,1111122 
COMPS,ioos:station:USF.COMPS:C10:1,2015-05-01T12:35:00Z,27.1690,-82.9260,1011.55,1111122 
COMPS,ioos:station:USF.COMPS:C10:1,2015-05-01T13:05:00Z,27.1690,-82.9260,1011.69,1111122 
COMPS,ioos:station:USF.COMPS:C10:1,2015-05-01T13:35:00Z,27.1690,-82.9260,1011.82,1111122 
COMPS,ioos:station:USF.COMPS:C10:1,2015-05-01T15:05:00Z,27.1690,-82.9260,1012.08,1111122 
COMPS,ioos:station:USF.COMPS:C10:1,2015-05-01T15:35:00Z,27.1690,-82.9260,1012.27,1111122 
COMPS,ioos:station:USF.COMPS:C10:1,2015-05-01T16:05:00Z,27.1690,-82.9260,1012.28,1111122 
COMPS,ioos:station:USF.COMPS:C10:1,2015-05-01T16:35:00Z,27.1690,-82.9260,1012.31,1111122 
COMPS,ioos:station:USF.COMPS:C10:1,2015-05-01T17:05:00Z,27.1690,-82.9260,1012.24,1111122 
COMPS,ioos:station:USF.COMPS:C10:1,2015-05-01T17:35:00Z,27.1690,-82.9260,1012.13,1111122 
COMPS,ioos:station:USF.COMPS:C10:1,2015-05-01T18:05:00Z,27.1690,-82.9260,1011.97,1111122 
COMPS,ioos:station:USF.COMPS:C10:1,2015-05-01T18:35:00Z,27.1690,-82.9260,1011.84,1111122 
COMPS,ioos:station:USF.COMPS:C10:1,2015-05-01T19:05:00Z,27.1690,-82.9260,1011.81,1111122 
COMPS,ioos:station:USF.COMPS:C10:1,2015-05-01T21:05:00Z,27.1690,-82.9260,1010.92,1111122 
COMPS,ioos:station:USF.COMPS:C10:1,2015-05-01T21:35:00Z,27.1690,-82.9260,1010.92,1111122 
COMPS,ioos:station:USF.COMPS:C10:1,2015-05-01T22:05:00Z,27.1690,-82.9260,1010.85,1111122 
COMPS,ioos:station:USF.COMPS:C10:1,2015-05-01T22:35:00Z,27.1690,-82.9260,1010.94,1111122 
COMPS,ioos:station:USF.COMPS:C10:1,2015-05-02T00:05:00Z,27.1690,-82.9260,1011.48,1111122 
COMPS,ioos:station:USF.COMPS:C10:1,2015-05-02T00:35:00Z,27.1690,-82.9260,1011.79,1111122 
COMPS,ioos:station:USF.COMPS:C10:1,2015-05-02T01:05:00Z,27.1690,-82.9260,1012.15,1111122 
COMPS,ioos:station:USF.COMPS:C10:1,2015-05-02T01:35:00Z,27.1690,-82.9260,1012.67,1111122 
COMPS,ioos:station:USF.COMPS:C10:1,2015-05-02T02:05:00Z,27.1690,-82.9260,1012.83,1111122 
COMPS,ioos:station:USF.COMPS:C10:1,2015-05-02T02:35:00Z,27.1690,-82.9260,1013.18,1111122 
COMPS,ioos:station:USF.COMPS:C10:1,2015-05-02T04:05:00Z,27.1690,-82.9260,1013.42,1111122 
COMPS,ioos:station:USF.COMPS:C10:1,2015-05-02T04:35:00Z,27.1690,-82.9260,1013.57,1111122 
COMPS,ioos:station:USF.COMPS:C10:1,2015-05-02T05:05:00Z,27.1690,-82.9260,1013.58,1111122 
COMPS,ioos:station:USF.COMPS:C10:1,2015-05-02T05:35:00Z,27.1690,-82.9260,1013.74,1111122 
COMPS,ioos:station:USF.COMPS:C10:1,2015-05-02T06:05:00Z,27.1690,-82.9260,1013.37,1111122 
COMPS,ioos:station:USF.COMPS:C10:1,2015-05-02T06:35:00Z,27.1690,-82.9260,1013.08,1111122 
COMPS,ioos:station:USF.COMPS:C10:1,2015-05-02T07:05:00Z,27.1690,-82.9260,1012.82,1111122 
COMPS,ioos:station:USF.COMPS:C10:1,2015-05-02T07:35:00Z,27.1690,-82.9260,1012.82,1111122 
COMPS,ioos:station:USF.COMPS:C10:1,2015-05-02T08:05:00Z,27.1690,-82.9260,1013.11,1111122 
COMPS,ioos:station:USF.COMPS:C10:1,2015-05-02T08:35:00Z,27.1690,-82.9260,1012.96,1111122 
COMPS,ioos:station:USF.COMPS:C10:1,2015-05-02T09:05:00Z,27.1690,-82.9260,1013.23,1111122 
COMPS,ioos:station:USF.COMPS:C10:1,2015-05-02T09:35:00Z,27.1690,-82.9260,1013.24,1111122 
COMPS,ioos:station:USF.COMPS:C10:1,2015-05-02T10:05:00Z,27.1690,-82.9260,1013.4,1111122 
COMPS,ioos:station:USF.COMPS:C10:1,2015-05-02T10:35:00Z,27.1690,-82.9260,1013.62,1111122 
COMPS,ioos:station:USF.COMPS:C10:1,2015-05-02T11:05:00Z,27.1690,-82.9260,1013.93,1111122 
COMPS,ioos:station:USF.COMPS:C10:1,2015-05-02T11:35:00Z,27.1690,-82.9260,1014.18,1111122 
COMPS,ioos:station:USF.COMPS:C10:1,2015-05-02T12:05:00Z,27.1690,-82.9260,1014.44,1111122 
COMPS,ioos:station:USF.COMPS:C10:1,2015-05-02T12:35:00Z,27.1690,-82.9260,1014.79,1111122 
COMPS,ioos:station:USF.COMPS:C10:1,2015-05-02T13:05:00Z,27.1690,-82.9260,1015.14,1111122 
COMPS,ioos:station:USF.COMPS:C10:1,2015-05-02T13:35:00Z,27.1690,-82.9260,1015.47,1111122 
COMPS,ioos:station:USF.COMPS:C10:1,2015-05-02T14:05:00Z,27.1690,-82.9260,1015.67,1111122 
COMPS,ioos:station:USF.COMPS:C10:1,2015-05-02T14:35:00Z,27.1690,-82.9260,1015.84,1111122 
COMPS,ioos:station:USF.COMPS:C10:1,2015-05-02T15:05:00Z,27.1690,-82.9260,1015.97,1111122 
COMPS,ioos:station:USF.COMPS:C10:1,2015-05-02T15:35:00Z,27.1690,-82.9260,1016.03,1111122 
COMPS,ioos:station:USF.COMPS:C10:1,2015-05-02T16:05:00Z,27.1690,-82.9260,1016.28,1111122 
COMPS,ioos:station:USF.COMPS:C10:1,2015-05-02T16:35:00Z,27.1690,-82.9260,1016.32,1111122 
COMPS,ioos:station:USF.COMPS:C10:1,2015-05-02T17:05:00Z,27.1690,-82.9260,1016.27,1111122 
COMPS,ioos:station:USF.COMPS:C10:1,2015-05-02T17:35:00Z,27.1690,-82.9260,1016.1,1111122 
COMPS,ioos:station:USF.COMPS:C10:1,2015-05-02T18:05:00Z,27.1690,-82.9260,1016.02,1111122 
COMPS,ioos:station:USF.COMPS:C10:1,2015-05-02T18:35:00Z,27.1690,-82.9260,1015.7,1111122 
COMPS,ioos:station:USF.COMPS:C10:1,2015-05-02T19:05:00Z,27.1690,-82.9260,1015.51,1111122 
COMPS,ioos:station:USF.COMPS:C10:1,2015-05-02T19:35:00Z,27.1690,-82.9260,1014.92,1111122 
COMPS,ioos:station:USF.COMPS:C10:1,2015-05-02T20:05:00Z,27.1690,-82.9260,1014.63,1111122 
COMPS,ioos:station:USF.COMPS:C10:1,2015-05-02T20:35:00Z,27.1690,-82.9260,1014.36,1111122 
COMPS,ioos:station:USF.COMPS:C10:1,2015-05-02T21:05:00Z,27.1690,-82.9260,1014.15,1111122 
COMPS,ioos:station:USF.COMPS:C10:1,2015-05-02T21:35:00Z,27.1690,-82.9260,1013.91,1111122 
COMPS,ioos:station:USF.COMPS:C10:1,2015-05-02T22:05:00Z,27.1690,-82.9260,1013.83,1111122 
COMPS,ioos:station:USF.COMPS:C10:1,2015-05-02T22:35:00Z,27.1690,-82.9260,1013.87,1111122 
COMPS,ioos:station:USF.COMPS:C10:1,2015-05-02T23:05:00Z,27.1690,-82.9260,1014.0,1111122 
COMPS,ioos:station:USF.COMPS:C10:1,2015-05-02T23:35:00Z,27.1690,-82.9260,1014.16,1111122 
COMPS,ioos:station:USF.COMPS:C10:1,2015-05-03T01:05:00Z,27.1690,-82.9260,1014.93,1111122 
COMPS,ioos:station:USF.COMPS:C10:1,2015-05-03T01:35:00Z,27.1690,-82.9260,1015.14,1111122 
COMPS,ioos:station:USF.COMPS:C10:1,2015-05-03T02:05:00Z,27.1690,-82.9260,1015.24,1111122 
COMPS,ioos:station:USF.COMPS:C10:1,2015-05-03T02:35:00Z,27.1690,-82.9260,1015.5,1111122 
COMPS,ioos:station:USF.COMPS:C10:1,2015-05-03T04:05:00Z,27.1690,-82.9260,1015.99,1111122 
COMPS,ioos:station:USF.COMPS:C10:1,2015-05-03T04:35:00Z,27.1690,-82.9260,1016.0,1111122 
COMPS,ioos:station:USF.COMPS:C10:1,2015-05-03T05:05:00Z,27.1690,-82.9260,1015.97,1111122 
COMPS,ioos:station:USF.COMPS:C10:1,2015-05-03T05:35:00Z,27.1690,-82.9260,1016.18,1111122 
COMPS,ioos:station:USF.COMPS:C10:1,2015-05-03T06:05:00Z,27.1690,-82.9260,1016.11,1111122 
COMPS,ioos:station:USF.COMPS:C10:1,2015-05-03T06:35:00Z,27.1690,-82.9260,1016.04,1111122 
COMPS,ioos:station:USF.COMPS:C10:1,2015-05-03T08:05:00Z,27.1690,-82.9260,1016.0,1111122 
COMPS,ioos:station:USF.COMPS:C10:1,2015-05-03T08:35:00Z,27.1690,-82.9260,1016.0,1111122 
COMPS,ioos:station:USF.COMPS:C10:1,2015-05-03T09:05:00Z,27.1690,-82.9260,1016.04,1111122 
COMPS,ioos:station:USF.COMPS:C10:1,2015-05-03T09:35:00Z,27.1690,-82.9260,1016.12,1111122 
COMPS,ioos:station:USF.COMPS:C10:1,2015-05-03T10:05:00Z,27.1690,-82.9260,1016.34,1111122 
COMPS,ioos:station:USF.COMPS:C10:1,2015-05-03T10:35:00Z,27.1690,-82.9260,1016.38,1111122 
COMPS,ioos:station:USF.COMPS:C10:1,2015-05-03T11:05:00Z,27.1690,-82.9260,1016.72,1111122 
COMPS,ioos:station:USF.COMPS:C10:1,2015-05-03T11:35:00Z,27.1690,-82.9260,1016.87,1111122 
COMPS,ioos:station:USF.COMPS:C10:1,2015-05-03T12:05:00Z,27.1690,-82.9260,1017.22,1111122 
COMPS,ioos:station:USF.COMPS:C10:1,2015-05-03T12:35:00Z,27.1690,-82.9260,1017.47,1111122 
COMPS,ioos:station:USF.COMPS:C10:1,2015-05-03T13:05:00Z,27.1690,-82.9260,1017.77,1111122 
COMPS,ioos:station:USF.COMPS:C10:1,2015-05-03T13:35:00Z,27.1690,-82.9260,1017.83,1111122 
COMPS,ioos:station:USF.COMPS:C10:1,2015-05-03T14:05:00Z,27.1690,-82.9260,1017.87,1111122 
COMPS,ioos:station:USF.COMPS:C10:1,2015-05-03T14:35:00Z,27.1690,-82.9260,1018.26,1111122 
COMPS,ioos:station:USF.COMPS:C10:1,2015-05-03T15:05:00Z,27.1690,-82.9260,1018.48,1111122 
COMPS,ioos:station:USF.COMPS:C10:1,2015-05-03T15:35:00Z,27.1690,-82.9260,1018.74,1111122 
COMPS,ioos:station:USF.COMPS:C10:1,2015-05-03T16:05:00Z,27.1690,-82.9260,1018.5,1111122 
COMPS,ioos:station:USF.COMPS:C10:1,2015-05-03T16:35:00Z,27.1690,-82.9260,1018.47,1111122 
COMPS,ioos:station:USF.COMPS:C10:1,2015-05-03T17:05:00Z,27.1690,-82.9260,1018.27,1111122 
COMPS,ioos:station:USF.COMPS:C10:1,2015-05-03T17:35:00Z,27.1690,-82.9260,1018.15,1111122 
COMPS,ioos:station:USF.COMPS:C10:1,2015-05-03T18:05:00Z,27.1690,-82.9260,1017.86,1111122 
COMPS,ioos:station:USF.COMPS:C10:1,2015-05-03T18:35:00Z,27.1690,-82.9260,1017.61,1111122 
COMPS,ioos:station:USF.COMPS:C10:1,2015-05-03T19:05:00Z,27.1690,-82.9260,1017.35,1111122 
COMPS,ioos:station:USF.COMPS:C10:1,2015-05-03T19:35:00Z,27.1690,-82.9260,1016.98,1111122 
COMPS,ioos:station:USF.COMPS:C10:1,2015-05-03T21:05:00Z,27.1690,-82.9260,1016.45,1111122 
COMPS,ioos:station:USF.COMPS:C10:1,2015-05-03T21:35:00Z,27.1690,-82.9260,1016.35,1111122 
COMPS,ioos:station:USF.COMPS:C10:1,2015-05-03T22:05:00Z,27.1690,-82.9260,1016.19,1111122 
COMPS,ioos:station:USF.COMPS:C10:1,2015-05-03T22:35:00Z,27.1690,-82.9260,1016.17,1111122 
COMPS,ioos:station:USF.COMPS:C10:1,2015-05-03T23:05:00Z,27.1690,-82.9260,1016.32,1111122 
COMPS,ioos:station:USF.COMPS:C10:1,2015-05-03T23:35:00Z,27.1690,-82.9260,1016.48,1111122 
COMPS,ioos:station:USF.COMPS:C10:1,2015-05-04T00:05:00Z,27.1690,-82.9260,1016.47,1111122 
COMPS,ioos:station:USF.COMPS:C10:1,2015-05-04T00:35:00Z,27.1690,-82.9260,1016.65,1111122 
COMPS,ioos:station:USF.COMPS:C10:1,2015-05-04T01:05:00Z,27.1690,-82.9260,1016.87,1111122 
COMPS,ioos:station:USF.COMPS:C10:1,2015-05-04T01:35:00Z,27.1690,-82.9260,1017.15,1111122 
COMPS,ioos:station:USF.COMPS:C10:1,2015-05-04T02:05:00Z,27.1690,-82.9260,1017.39,1111122 
COMPS,ioos:station:USF.COMPS:C10:1,2015-05-04T02:35:00Z,27.1690,-82.9260,1017.53,1111122 
COMPS,ioos:station:USF.COMPS:C10:1,2015-05-04T03:05:00Z,27.1690,-82.9260,1017.83,1111122 
COMPS,ioos:station:USF.COMPS:C10:1,2015-05-04T03:35:00Z,27.1690,-82.9260,1017.94,1111122 
COMPS,ioos:station:USF.COMPS:C10:1,2015-05-04T04:05:00Z,27.1690,-82.9260,1018.19,1111122 
COMPS,ioos:station:USF.COMPS:C10:1,2015-05-04T04:35:00Z,27.1690,-82.9260,1018.34,1111122 
COMPS,ioos:station:USF.COMPS:C10:1,2015-05-04T05:05:00Z,27.1690,-82.9260,1018.38,1111122 
COMPS,ioos:station:USF.COMPS:C10:1,2015-05-04T05:35:00Z,27.1690,-82.9260,1018.46,1111122 
COMPS,ioos:station:USF.COMPS:C10:1,2015-05-04T06:05:00Z,27.1690,-82.9260,1018.62,1111122 
COMPS,ioos:station:USF.COMPS:C10:1,2015-05-04T06:35:00Z,27.1690,-82.9260,1018.48,1111122 
COMPS,ioos:station:USF.COMPS:C10:1,2015-05-04T07:05:00Z,27.1690,-82.9260,1018.38,1111122 
COMPS,ioos:station:USF.COMPS:C10:1,2015-05-04T07:35:00Z,27.1690,-82.9260,1018.39,1111122 
COMPS,ioos:station:USF.COMPS:C10:1,2015-05-04T08:05:00Z,27.1690,-82.9260,1018.28,1111122 
COMPS,ioos:station:USF.COMPS:C10:1,2015-05-04T08:35:00Z,27.1690,-82.9260,1018.16,1111122 
COMPS,ioos:station:USF.COMPS:C10:1,2015-05-04T09:05:00Z,27.1690,-82.9260,1018.21,1111122 
COMPS,ioos:station:USF.COMPS:C10:1,2015-05-04T09:35:00Z,27.1690,-82.9260,1018.29,1111122 
COMPS,ioos:station:USF.COMPS:C10:1,2015-05-04T10:05:00Z,27.1690,-82.9260,1018.34,1111122 
COMPS,ioos:station:USF.COMPS:C10:1,2015-05-04T10:35:00Z,27.1690,-82.9260,1018.42,1111122 
COMPS,ioos:station:USF.COMPS:C10:1,2015-05-04T11:05:00Z,27.1690,-82.9260,1018.8,1111122 
COMPS,ioos:station:USF.COMPS:C10:1,2015-05-04T11:35:00Z,27.1690,-82.9260,1019.16,1111122 
COMPS,ioos:station:USF.COMPS:C10:1,2015-05-04T12:05:00Z,27.1690,-82.9260,1019.28,1111122 
COMPS,ioos:station:USF.COMPS:C10:1,2015-05-04T12:35:00Z,27.1690,-82.9260,1019.43,1111122 
COMPS,ioos:station:USF.COMPS:C10:1,2015-05-04T13:05:00Z,27.1690,-82.9260,1019.8,1111122 
COMPS,ioos:station:USF.COMPS:C10:1,2015-05-04T13:35:00Z,27.1690,-82.9260,1020.07,1111122 
COMPS,ioos:station:USF.COMPS:C10:1,2015-05-04T14:05:00Z,27.1690,-82.9260,1020.27,1111122 
COMPS,ioos:station:USF.COMPS:C10:1,2015-05-04T14:35:00Z,27.1690,-82.9260,1020.07,1111122 
COMPS,ioos:station:USF.COMPS:C10:1,2015-05-04T15:05:00Z,27.1690,-82.9260,1020.24,1111122 
COMPS,ioos:station:USF.COMPS:C10:1,2015-05-04T15:35:00Z,27.1690,-82.9260,1020.5,1111122 
COMPS,ioos:station:USF.COMPS:C10:1,2015-05-04T16:05:00Z,27.1690,-82.9260,1020.4,1111122 
COMPS,ioos:station:USF.COMPS:C10:1,2015-05-04T16:35:00Z,27.1690,-82.9260,1020.27,1111122 
COMPS,ioos:station:USF.COMPS:C10:1,2015-05-04T17:05:00Z,27.1690,-82.9260,1020.02,1111122 
COMPS,ioos:station:USF.COMPS:C10:1,2015-05-04T17:35:00Z,27.1690,-82.9260,1019.72,1111122 
COMPS,ioos:station:USF.COMPS:C10:1,2015-05-04T18:05:00Z,27.1690,-82.9260,1019.49,1111122 
COMPS,ioos:station:USF.COMPS:C10:1,2015-05-04T18:35:00Z,27.1690,-82.9260,1019.27,1111122 
COMPS,ioos:station:USF.COMPS:C10:1,2015-05-04T19:05:00Z,27.1690,-82.9260,1018.77,1111122 
COMPS,ioos:station:USF.COMPS:C10:1,2015-05-04T19:35:00Z,27.1690,-82.9260,1018.37,1111122 
COMPS,ioos:station:USF.COMPS:C10:1,2015-05-04T20:05:00Z,27.1690,-82.9260,1018.24,1111122 
COMPS,ioos:station:USF.COMPS:C10:1,2015-05-04T20:35:00Z,27.1690,-82.9260,1017.81,1111122 
COMPS,ioos:station:USF.COMPS:C10:1,2015-05-04T21:05:00Z,27.1690,-82.9260,1017.74,1111122 
COMPS,ioos:station:USF.COMPS:C10:1,2015-05-04T21:35:00Z,27.1690,-82.9260,1017.64,1111122 
COMPS,ioos:station:USF.COMPS:C10:1,2015-05-04T22:05:00Z,27.1690,-82.9260,1017.68,1111122 
COMPS,ioos:station:USF.COMPS:C10:1,2015-05-04T22:35:00Z,27.1690,-82.9260,1017.74,1111122 
COMPS,ioos:station:USF.COMPS:C10:1,2015-05-04T23:05:00Z,27.1690,-82.9260,1017.67,1111122 
COMPS,ioos:station:USF.COMPS:C10:1,2015-05-04T23:35:00Z,27.1690,-82.9260,1017.89,1111122 
COMPS,ioos:station:USF.COMPS:C10:1,2015-05-05T00:05:00Z,27.1690,-82.9260,1018.15,1111122 
COMPS,ioos:station:USF.COMPS:C10:1,2015-05-05T00:35:00Z,27.1690,-82.9260,1018.26,1111122 
COMPS,ioos:station:USF.COMPS:C10:1,2015-05-05T01:05:00Z,27.1690,-82.9260,1018.71,1111122 
COMPS,ioos:station:USF.COMPS:C10:1,2015-05-05T01:35:00Z,27.1690,-82.9260,1019.17,1111122 
COMPS,ioos:station:USF.COMPS:C10:1,2015-05-05T02:05:00Z,27.1690,-82.9260,1019.15,1111122 
COMPS,ioos:station:USF.COMPS:C10:1,2015-05-05T02:35:00Z,27.1690,-82.9260,1019.16,1111122 
COMPS,ioos:station:USF.COMPS:C10:1,2015-05-05T04:05:00Z,27.1690,-82.9260,1019.33,1111122 
COMPS,ioos:station:USF.COMPS:C10:1,2015-05-05T04:35:00Z,27.1690,-82.9260,1019.23,1111122 
COMPS,ioos:station:USF.COMPS:C10:1,2015-05-05T05:05:00Z,27.1690,-82.9260,1019.32,1111122 
COMPS,ioos:station:USF.COMPS:C10:1,2015-05-05T05:35:00Z,27.1690,-82.9260,1019.15,1111122 
COMPS,ioos:station:USF.COMPS:C10:1,2015-05-05T06:05:00Z,27.1690,-82.9260,1018.81,1111122 
COMPS,ioos:station:USF.COMPS:C10:1,2015-05-05T06:35:00Z,27.1690,-82.9260,1018.4,1111122 
COMPS,ioos:station:USF.COMPS:C10:1,2015-05-05T07:05:00Z,27.1690,-82.9260,1018.12,1111122 
COMPS,ioos:station:USF.COMPS:C10:1,2015-05-05T07:35:00Z,27.1690,-82.9260,1017.84,1111122 
COMPS,ioos:station:USF.COMPS:C10:1,2015-05-05T08:05:00Z,27.1690,-82.9260,1017.43,1111122 
COMPS,ioos:station:USF.COMPS:C10:1,2015-05-05T08:35:00Z,27.1690,-82.9260,1017.53,1111122 
COMPS,ioos:station:USF.COMPS:C10:1,2015-05-05T09:05:00Z,27.1690,-82.9260,1017.37,1111122 
COMPS,ioos:station:USF.COMPS:C10:1,2015-05-05T09:35:00Z,27.1690,-82.9260,1017.39,1111122 
COMPS,ioos:station:USF.COMPS:C10:1,2015-05-05T10:05:00Z,27.1690,-82.9260,1017.39,1111122 
COMPS,ioos:station:USF.COMPS:C10:1,2015-05-05T10:35:00Z,27.1690,-82.9260,1017.62,1111122 
COMPS,ioos:station:USF.COMPS:C10:1,2015-05-05T11:05:00Z,27.1690,-82.9260,1017.9,1111122 
COMPS,ioos:station:USF.COMPS:C10:1,2015-05-05T11:35:00Z,27.1690,-82.9260,1018.05,1111122 
COMPS,ioos:station:USF.COMPS:C10:1,2015-05-05T12:05:00Z,27.1690,-82.9260,1018.51,1111122 
COMPS,ioos:station:USF.COMPS:C10:1,2015-05-05T12:35:00Z,27.1690,-82.9260,1018.74,1111122 
COMPS,ioos:station:USF.COMPS:C10:1,2015-05-05T13:05:00Z,27.1690,-82.9260,1018.57,1111122 
COMPS,ioos:station:USF.COMPS:C10:1,2015-05-05T13:35:00Z,27.1690,-82.9260,1018.64,1111122 
COMPS,ioos:station:USF.COMPS:C10:1,2015-05-05T14:05:00Z,27.1690,-82.9260,1018.81,1111122 
COMPS,ioos:station:USF.COMPS:C10:1,2015-05-05T14:35:00Z,27.1690,-82.9260,1018.95,1111122 
COMPS,ioos:station:USF.COMPS:C10:1,2015-05-05T15:05:00Z,27.1690,-82.9260,1018.85,1111122 
COMPS,ioos:station:USF.COMPS:C10:1,2015-05-05T15:35:00Z,27.1690,-82.9260,1018.8,1111122 
COMPS,ioos:station:USF.COMPS:C10:1,2015-05-05T16:05:00Z,27.1690,-82.9260,1018.47,1111122 
COMPS,ioos:station:USF.COMPS:C10:1,2015-05-05T16:35:00Z,27.1690,-82.9260,1018.31,1111122 
COMPS,ioos:station:USF.COMPS:C10:1,2015-05-05T17:05:00Z,27.1690,-82.9260,1017.91,1111122 
COMPS,ioos:station:USF.COMPS:C10:1,2015-05-05T17:35:00Z,27.1690,-82.9260,1017.84,1111122 
COMPS,ioos:station:USF.COMPS:C10:1,2015-05-05T18:05:00Z,27.1690,-82.9260,1017.63,1111122 
COMPS,ioos:station:USF.COMPS:C10:1,2015-05-05T18:35:00Z,27.1690,-82.9260,1017.38,1111122 
COMPS,ioos:station:USF.COMPS:C10:1,2015-05-05T19:05:00Z,27.1690,-82.9260,1017.05,1111122 
COMPS,ioos:station:USF.COMPS:C10:1,2015-05-05T19:35:00Z,27.1690,-82.9260,1016.82,1111122 
COMPS,ioos:station:USF.COMPS:C10:1,2015-05-05T20:05:00Z,27.1690,-82.9260,1016.24,1111122 
COMPS,ioos:station:USF.COMPS:C10:1,2015-05-05T20:35:00Z,27.1690,-82.9260,1015.93,1111122 
COMPS,ioos:station:USF.COMPS:C10:1,2015-05-05T21:05:00Z,27.1690,-82.9260,1015.78,1111122 
COMPS,ioos:station:USF.COMPS:C10:1,2015-05-05T21:35:00Z,27.1690,-82.9260,1015.63,1111122 
COMPS,ioos:station:USF.COMPS:C10:1,2015-05-05T22:05:00Z,27.1690,-82.9260,1015.51,1111122 
COMPS,ioos:station:USF.COMPS:C10:1,2015-05-05T22:35:00Z,27.1690,-82.9260,1015.44,1111122 
COMPS,ioos:station:USF.COMPS:C10:1,2015-05-05T23:05:00Z,27.1690,-82.9260,1015.55,1111122 
COMPS,ioos:station:USF.COMPS:C10:1,2015-05-05T23:35:00Z,27.1690,-82.9260,1015.56,1111122 
COMPS,ioos:station:USF.COMPS:C10:1,2015-05-06T00:05:00Z,27.1690,-82.9260,1015.7,1111122 
COMPS,ioos:station:USF.COMPS:C10:1,2015-05-06T00:35:00Z,27.1690,-82.9260,1016.01,1111122 
COMPS,ioos:station:USF.COMPS:C10:1,2015-05-06T01:05:00Z,27.1690,-82.9260,1016.35,1111122 
COMPS,ioos:station:USF.COMPS:C10:1,2015-05-06T01:35:00Z,27.1690,-82.9260,1016.58,1111122 
COMPS,ioos:station:USF.COMPS:C10:1,2015-05-06T02:05:00Z,27.1690,-82.9260,1016.92,1111122 
COMPS,ioos:station:USF.COMPS:C10:1,2015-05-06T02:35:00Z,27.1690,-82.9260,1016.89,1111122 
COMPS,ioos:station:USF.COMPS:C10:1,2015-05-06T04:05:00Z,27.1690,-82.9260,1017.31,1111122 
COMPS,ioos:station:USF.COMPS:C10:1,2015-05-06T04:35:00Z,27.1690,-82.9260,1017.09,1111122 
COMPS,ioos:station:USF.COMPS:C10:1,2015-05-06T05:05:00Z,27.1690,-82.9260,1016.86,1111122 
COMPS,ioos:station:USF.COMPS:C10:1,2015-05-06T05:35:00Z,27.1690,-82.9260,1016.76,1111122 
COMPS,ioos:station:USF.COMPS:C10:1,2015-05-06T06:05:00Z,27.1690,-82.9260,1016.51,1111122 
COMPS,ioos:station:USF.COMPS:C10:1,2015-05-06T06:35:00Z,27.1690,-82.9260,1016.09,1111122 
COMPS,ioos:station:USF.COMPS:C10:1,2015-05-06T07:05:00Z,27.1690,-82.9260,1015.89,1111122 
COMPS,ioos:station:USF.COMPS:C10:1,2015-05-06T07:35:00Z,27.1690,-82.9260,1015.68,1111122 
COMPS,ioos:station:USF.COMPS:C10:1,2015-05-06T08:05:00Z,27.1690,-82.9260,1015.59,1111122 
COMPS,ioos:station:USF.COMPS:C10:1,2015-05-06T08:35:00Z,27.1690,-82.9260,1015.44,1111122 
COMPS,ioos:station:USF.COMPS:C10:1,2015-05-06T09:05:00Z,27.1690,-82.9260,1015.26,1111122 
COMPS,ioos:station:USF.COMPS:C10:1,2015-05-06T09:35:00Z,27.1690,-82.9260,1015.17,1111122 
COMPS,ioos:station:USF.COMPS:C10:1,2015-05-06T10:05:00Z,27.1690,-82.9260,1015.19,1111122 
COMPS,ioos:station:USF.COMPS:C10:1,2015-05-06T10:35:00Z,27.1690,-82.9260,1015.41,1111122 
COMPS,ioos:station:USF.COMPS:C10:1,2015-05-06T11:05:00Z,27.1690,-82.9260,1015.3,1111122 
COMPS,ioos:station:USF.COMPS:C10:1,2015-05-06T11:35:00Z,27.1690,-82.9260,1015.52,1111122 
COMPS,ioos:station:USF.COMPS:C10:1,2015-05-06T12:05:00Z,27.1690,-82.9260,1015.8,1111122 
COMPS,ioos:station:USF.COMPS:C10:1,2015-05-06T12:35:00Z,27.1690,-82.9260,1016.05,1111122 
COMPS,ioos:station:USF.COMPS:C10:1,2015-05-06T13:05:00Z,27.1690,-82.9260,1015.99,1111122 
COMPS,ioos:station:USF.COMPS:C10:1,2015-05-06T13:35:00Z,27.1690,-82.9260,1015.97,1111122 
COMPS,ioos:station:USF.COMPS:C10:1,2015-05-06T14:05:00Z,27.1690,-82.9260,1016.39,1111122 
COMPS,ioos:station:USF.COMPS:C10:1,2015-05-06T14:35:00Z,27.1690,-82.9260,1016.47,1111122 
COMPS,ioos:station:USF.COMPS:C10:1,2015-05-06T15:05:00Z,27.1690,-82.9260,1016.54,1111122 
COMPS,ioos:station:USF.COMPS:C10:1,2015-05-06T15:35:00Z,27.1690,-82.9260,1016.84,1111122 
COMPS,ioos:station:USF.COMPS:C10:1,2015-05-06T16:05:00Z,27.1690,-82.9260,1016.76,1111122 
COMPS,ioos:station:USF.COMPS:C10:1,2015-05-06T16:35:00Z,27.1690,-82.9260,1016.55,1111122 
COMPS,ioos:station:USF.COMPS:C10:1,2015-05-06T17:05:00Z,27.1690,-82.9260,1016.44,1111122 
COMPS,ioos:station:USF.COMPS:C10:1,2015-05-06T17:35:00Z,27.1690,-82.9260,1016.22,1111122 
COMPS,ioos:station:USF.COMPS:C10:1,2015-05-06T18:05:00Z,27.1690,-82.9260,1015.78,1111122 
COMPS,ioos:station:USF.COMPS:C10:1,2015-05-06T18:35:00Z,27.1690,-82.9260,1015.56,1111122 
COMPS,ioos:station:USF.COMPS:C10:1,2015-05-06T19:05:00Z,27.1690,-82.9260,1015.27,1111122 
COMPS,ioos:station:USF.COMPS:C10:1,2015-05-06T19:35:00Z,27.1690,-82.9260,1015.06,1111122 
COMPS,ioos:station:USF.COMPS:C10:1,2015-05-06T20:05:00Z,27.1690,-82.9260,1014.79,1111122 
COMPS,ioos:station:USF.COMPS:C10:1,2015-05-06T20:35:00Z,27.1690,-82.9260,1014.7,1111122 
COMPS,ioos:station:USF.COMPS:C10:1,2015-05-06T21:05:00Z,27.1690,-82.9260,1014.72,1111122 
COMPS,ioos:station:USF.COMPS:C10:1,2015-05-06T21:35:00Z,27.1690,-82.9260,1014.63,1111122 
COMPS,ioos:station:USF.COMPS:C10:1,2015-05-06T22:05:00Z,27.1690,-82.9260,1014.51,1111122 
COMPS,ioos:station:USF.COMPS:C10:1,2015-05-06T22:35:00Z,27.1690,-82.9260,1014.19,1111122 
COMPS,ioos:station:USF.COMPS:C10:1,2015-05-07T00:05:00Z,27.1690,-82.9260,1014.46,1111122 
COMPS,ioos:station:USF.COMPS:C10:1,2015-05-07T00:35:00Z,27.1690,-82.9260,1014.58,1111122 
COMPS,ioos:station:USF.COMPS:C10:1,2015-05-07T04:05:00Z,27.1690,-82.9260,1015.94,1111122 
COMPS,ioos:station:USF.COMPS:C10:1,2015-05-07T04:35:00Z,27.1690,-82.9260,1015.55,1111122 
COMPS,ioos:station:USF.COMPS:C10:1,2015-05-07T05:05:00Z,27.1690,-82.9260,1015.18,1111122 
COMPS,ioos:station:USF.COMPS:C10:1,2015-05-07T05:35:00Z,27.1690,-82.9260,1014.87,1111122 
COMPS,ioos:station:USF.COMPS:C10:1,2015-05-07T06:05:00Z,27.1690,-82.9260,1014.55,1111122 
COMPS,ioos:station:USF.COMPS:C10:1,2015-05-07T06:35:00Z,27.1690,-82.9260,1014.21,1111122 
COMPS,ioos:station:USF.COMPS:C10:1,2015-05-07T07:05:00Z,27.1690,-82.9260,1014.01,1111122 